Terminal Aerodrome Forecast
Issued by NWS

Home | Current Version | Previous Version | Text Only | Print | Product List | Glossary On
Versions: 1 2 3 4 5 6 7 8 9 10 11 12 13 14 15 16 17 18 19 20 21 22 23
000
FTUS45 KRIW 302336
TAFPNA
TAF
KPNA 302336Z 3100/3124 28014G24KT P6SM SCT080
     FM310300 29012KT P6SM FEW110
     FM310700 29007KT P6SM SKC
     FM312000 24013KT P6SM FEW200
      AMD LTD TO CLD VIS AND WIND=

USA.gov is the U.S. government's official web portal to all federal, state and local government web resources and services.